Location: Burland Observatory
(39.4088°N, 105.4217°W)
Time: 07:22:15
(UTC-07:00)

Explorer 7 - Pass Details

Date: 12 December 2019
Orbit: 485 x 679 km, 50.3° (Epoch: 17 January)

Event Time Altitude Azimuth Distance (km) Brightness Sun altitude
Rises 19:24:02 0° 305° (NW) 3,030 11.3 -31.1°
Reaches altitude 10° 19:26:40 10° 316° (NW) 2,112 10.2 -31.6°
Enters shadow 19:28:06 17° 327° (NNW) 1,667 9.5 -31.9°
